Location: Newark
(50.0306°N, 2.3272°E)
Time: 01:42:57
(UTC+00:00)

Vanguard 1 - Pass Details

Date: 13 December 2019
Orbit: 651 x 3832 km, 34.2° (Epoch: 23 January)

Event Time Altitude Azimuth Distance (km) Brightness Sun altitude
Exits shadow 01:54:51 27° 161° (SSE) 5,536 13.6 -53.0°
Maximum altitude 01:59:59 30° 143° (SE) 5,415 13.6 -52.3°
Drops below altitude 10° 02:16:49 10° 93° (E) 6,413 14.6 -50.0°
Sets 02:22:08 0° 84° (E) 7,089 15.0 -49.2°
